,,,PA_Meas_PMT16A,,PR_Meas_QMR101_102,,RH_Meas_QMH101,,SR_Meas_QMS101,,TA_Meas_QMH101,,GenWind,,GenWind,
date,time,status,PA,status,PR,status,RH,status,SR,status,TA,status,DirAvg,status,SpdAvg,
2009-03-10, 00:00:04,VALID,1001.67,VALID,0,VALID,93.0127,VALID,0,VALID,22.9811,VALID,16,VALID,0.991797,
2009-03-10, 00:01:04,VALID,1001.63,VALID,0,VALID,93.15,VALID,0,VALID,22.942,VALID,17,VALID,0.930078,
2009-03-10, 00:02:04,VALID,1001.65,VALID,0,VALID,93.2187,VALID,0,VALID,22.9243,VALID,17,VALID,0.987109,
2009-03-10, 00:03:04,VALID,1001.62,VALID,0,VALID,93.3713,VALID,0,VALID,22.864,VALID,17,VALID,1.16289,
2009-03-10, 00:04:04,VALID,1001.62,VALID,0,VALID,93.4094,VALID,0,VALID,22.8445,VALID,17,VALID,1.01211,
2009-03-10, 00:05:04,VALID,1001.6,VALID,0,VALID,93.5697,VALID,0,VALID,22.8055,VALID,18,VALID,0.947656,
2009-03-10, 00:06:04,VALID,1001.59,VALID,0,VALID,93.7299,VALID,0,VALID,22.8055,VALID,17,VALID,0.745313,
2009-03-10, 00:07:04,VALID,1001.57,VALID,0,VALID,93.9054,VALID,0,VALID,22.8055,VALID,16,VALID,0.607031,
2009-03-10, 00:08:04,VALID,1001.54,VALID,0,VALID,93.9283,VALID,0,VALID,22.825,VALID,16,VALID,0.522656,
2009-03-10, 00:09:04,VALID,1001.57,VALID,0,VALID,93.9206,VALID,0,VALID,22.825,VALID,16,VALID,0.497266,
2009-03-10, 00:10:04,VALID,1001.54,VALID,0,VALID,93.9664,VALID,0,VALID,22.8055,VALID,16,VALID,0.433594,
2009-03-10, 00:11:04,VALID,1001.56,VALID,0,VALID,94.18,VALID,0,VALID,22.825,VALID,16,VALID,0.503125,
2009-03-10, 00:12:04,VALID,1001.53,VALID,0,VALID,94.2258,VALID,0,VALID,22.8445,VALID,27,VALID,0.69375,
2009-03-10, 00:13:04,VALID,1001.51,VALID,0,VALID,94.2792,VALID,0,VALID,22.864,VALID,36,VALID,0.842578,
2009-03-10, 00:14:04,VALID,1001.5,VALID,0,VALID,94.18,VALID,0,VALID,22.8623,VALID,42,VALID,0.942969,
2009-03-10, 00:15:04,VALID,1001.49,VALID,0,VALID,94.1495,VALID,0,VALID,22.8818,VALID,46,VALID,1.04336,
2009-03-10, 00:16:04,VALID,1001.5,VALID,0,VALID,94.0198,VALID,0,VALID,22.8835,VALID,46,VALID,1.0375,
2009-03-10, 00:17:04,VALID,1001.48,VALID,0,VALID,94.0045,VALID,0,VALID,22.8835,VALID,46,VALID,0.927734,
2009-03-10, 00:18:04,VALID,1001.46,VALID,0,VALID,93.8748,VALID,0,VALID,22.8427,VALID,46,VALID,0.739062,
2009-03-10, 00:19:04,VALID,1001.46,VALID,0,VALID,93.852,VALID,0,VALID,22.8445,VALID,46,VALID,0.661328,
2009-03-10, 00:20:04,VALID,1001.45,VALID,0,VALID,93.6994,VALID,0,VALID,22.825,VALID,46,VALID,0.347266,
2009-03-10, 00:21:04,VALID,1001.47,VALID,0,VALID,93.6383,VALID,0,VALID,22.7664,VALID,46,VALID,0.0808594,
2009-03-10, 00:22:04,VALID,1001.45,VALID,0,VALID,93.6688,VALID,0,VALID,22.7274,VALID,46,VALID,0.142188,
2009-03-10, 00:23:04,VALID,1001.42,VALID,0,VALID,93.7833,VALID,0,VALID,22.6867,VALID,46,VALID,0.314844,
2009-03-10, 00:24:04,VALID,1001.41,VALID,0,VALID,93.9664,VALID,0,VALID,22.7079,VALID,49,VALID,0.28125,
2009-03-10, 00:25:04,VALID,1001.43,VALID,0,VALID,94.0808,VALID,0,VALID,22.6884,VALID,52,VALID,0.414063,
2009-03-10, 00:26:04,VALID,1001.37,VALID,0,VALID,94.1419,VALID,0,VALID,22.6867,VALID,76,VALID,0.545313,
2009-03-10, 00:27:04,VALID,1001.35,VALID,0,VALID,94.2716,VALID,0,VALID,22.7079,VALID,76,VALID,0.612891,
2009-03-10, 00:28:04,VALID,1001.34,VALID,0,VALID,94.264,VALID,0,VALID,22.7062,VALID,77,VALID,0.698047,
2009-03-10, 00:29:04,VALID,1001.28,VALID,0,VALID,94.2411,VALID,0,VALID,22.7274,VALID,77,VALID,0.567578,
2009-03-10, 00:30:04,VALID,1001.27,VALID,0,VALID,94.2029,VALID,0,VALID,22.7062,VALID,77,VALID,0.360547,
2009-03-10, 00:31:04,VALID,1001.21,VALID,0,VALID,94.1571,VALID,0,VALID,22.7079,VALID,77,VALID,0.342578,
2009-03-10, 00:32:04,VALID,1001.19,VALID,0,VALID,94.1648,VALID,0,VALID,22.6884,VALID,77,VALID,0.333203,
2009-03-10, 00:33:04,VALID,1001.18,VALID,0,VALID,94.1648,VALID,0,VALID,22.6689,VALID,77,VALID,0.183594,
2009-03-10, 00:34:04,VALID,1001.14,VALID,0,VALID,94.1495,VALID,0,VALID,22.6494,VALID,77,VALID,0.166016,
2009-03-10, 00:35:04,VALID,1001.11,VALID,0,VALID,94.2182,VALID,0,VALID,22.6299,VALID,77,VALID,0.198047,
2009-03-10, 00:36:04,VALID,1001.09,VALID,0,VALID,94.3937,VALID,0,VALID,22.6299,VALID,80,VALID,0.397266,
2009-03-10, 00:37:04,VALID,1001.07,VALID,0,VALID,94.5691,VALID,0,VALID,22.6689,VALID,104,VALID,0.432813,
2009-03-10, 00:38:04,VALID,1001.05,VALID,0,VALID,94.6302,VALID,0,VALID,22.6884,VALID,113,VALID,0.601953,
2009-03-10, 00:39:04,VALID,1001.01,VALID,0,VALID,94.5615,VALID,0,VALID,22.7079,VALID,113,VALID,0.609375,
2009-03-10, 00:40:04,VALID,1000.98,VALID,0,VALID,94.5386,VALID,0,VALID,22.7079,VALID,113,VALID,0.510938,
2009-03-10, 00:41:04,VALID,1000.98,VALID,0,VALID,94.531,VALID,0,VALID,22.7274,VALID,113,VALID,0.166797,
2009-03-10, 00:42:04,VALID,1000.96,VALID,0,VALID,94.531,VALID,0,VALID,22.7274,VALID,113,VALID,0,
2009-03-10, 00:43:04,VALID,1000.94,VALID,0,VALID,94.47,VALID,0,VALID,22.7274,VALID,113,VALID,0,
2009-03-10, 00:44:04,VALID,1000.92,VALID,0,VALID,94.4928,VALID,0,VALID,22.7469,VALID,137,VALID,0.335547,
2009-03-10, 00:45:04,VALID,1000.9,VALID,0,VALID,94.5081,VALID,0,VALID,22.7469,VALID,180,VALID,0.516406,
2009-03-10, 00:46:04,VALID,1000.9,VALID,0,VALID,94.5462,VALID,0,VALID,22.7664,VALID,180,VALID,0.554688,
2009-03-10, 00:47:04,VALID,1000.92,VALID,0,VALID,94.5005,VALID,0,VALID,22.7257,VALID,172,VALID,0.821484,
2009-03-10, 00:48:04,VALID,1000.87,VALID,0,VALID,94.5462,VALID,0,VALID,22.7664,VALID,154,VALID,0.693359,
2009-03-10, 00:49:04,VALID,1000.87,VALID,0,VALID,94.5844,VALID,0,VALID,22.7664,VALID,119,VALID,0.5625,
2009-03-10, 00:50:04,VALID,1000.88,VALID,0,VALID,94.3937,VALID,0,VALID,22.7257,VALID,120,VALID,0.436328,
2009-03-10, 00:51:04,VALID,1000.89,VALID,0,VALID,94.3403,VALID,0,VALID,22.7469,VALID,148,VALID,0.317187,
2009-03-10, 00:52:04,VALID,1000.86,VALID,0,VALID,94.2029,VALID,0,VALID,22.6884,VALID,137,VALID,0.359766,
2009-03-10, 00:53:04,VALID,1000.84,VALID,0,VALID,94.3097,VALID,0,VALID,22.6689,VALID,137,VALID,0.00234375,
2009-03-10, 00:54:04,VALID,1000.84,VALID,0,VALID,94.2411,VALID,0,VALID,22.6282,VALID,137,VALID,0.216797,
2009-03-10, 00:55:04,VALID,1000.83,VALID,0,VALID,94.2411,VALID,0,VALID,22.6104,VALID,137,VALID,0.298047,
2009-03-10, 00:56:04,VALID,1000.82,VALID,0,VALID,94.2182,VALID,0,VALID,22.5909,VALID,137,VALID,0.289453,
2009-03-10, 00:57:04,VALID,1000.81,VALID,0,VALID,94.3631,VALID,0,VALID,22.5909,VALID,137,VALID,0,
2009-03-10, 00:58:04,VALID,1000.82,VALID,0,VALID,94.2563,VALID,0,VALID,22.5714,VALID,137,VALID,0.232031,
2009-03-10, 00:59:04,VALID,1000.76,VALID,0,VALID,94.386,VALID,0,VALID,22.5323,VALID,136,VALID,0.436719,
2009-03-10, 01:00:04,VALID,1000.78,VALID,0,VALID,94.6073,VALID,0,VALID,22.5714,VALID,136,VALID,0.343359,
2009-03-10, 01:01:04,VALID,1000.76,VALID,0,VALID,94.4471,VALID,0,VALID,22.5714,VALID,136,VALID,0.09375,
2009-03-10, 01:02:04,VALID,1000.76,VALID,0,VALID,94.4242,VALID,0,VALID,22.5519,VALID,136,VALID,0.126563,
2009-03-10, 01:03:04,VALID,1000.77,VALID,0,VALID,94.5615,VALID,0,VALID,22.5306,VALID,136,VALID,0.00195313,
2009-03-10, 01:04:04,VALID,1000.73,VALID,0,VALID,94.5539,VALID,0,VALID,22.5519,VALID,136,VALID,0,
2009-03-10, 01:05:04,VALID,1000.71,VALID,0,VALID,94.592,VALID,0,VALID,22.5323,VALID,136,VALID,0,
2009-03-10, 01:06:04,VALID,1000.72,VALID,0,VALID,94.5615,VALID,0,VALID,22.5519,VALID,136,VALID,0.127344,
2009-03-10, 01:07:04,VALID,1000.71,VALID,0,VALID,94.6378,VALID,0.112286,VALID,22.5306,VALID,136,VALID,0.00351562,
2009-03-10, 01:08:04,VALID,1000.68,VALID,0,VALID,94.6302,VALID,0,VALID,22.5519,VALID,136,VALID,0.00390625,
2009-03-10, 01:09:04,VALID,1000.64,VALID,0,VALID,94.7446,VALID,0,VALID,22.5714,VALID,136,VALID,0.207813,
2009-03-10, 01:10:04,VALID,1000.64,VALID,0,VALID,94.7828,VALID,0,VALID,22.5909,VALID,136,VALID,0.327734,
2009-03-10, 01:11:04,VALID,1000.62,VALID,0,VALID,94.8209,VALID,0,VALID,22.6104,VALID,135,VALID,0.398047,
2009-03-10, 01:12:04,VALID,1000.63,VALID,0,VALID,94.8133,VALID,0,VALID,22.6087,VALID,135,VALID,0.329297,
2009-03-10, 01:13:04,VALID,1000.64,VALID,0,VALID,94.7446,VALID,0,VALID,22.6494,VALID,135,VALID,0.337109,
2009-03-10, 01:14:04,VALID,1000.63,VALID,0,VALID,94.7217,VALID,0,VALID,22.6494,VALID,135,VALID,0.4125,
2009-03-10, 01:15:04,VALID,1000.63,VALID,0,VALID,94.7599,VALID,0,VALID,22.6299,VALID,135,VALID,0.489453,
2009-03-10, 01:16:04,VALID,1000.61,VALID,0,VALID,94.8362,VALID,0,VALID,22.6494,VALID,135,VALID,0.289453,
2009-03-10, 01:17:04,VALID,1000.59,VALID,0,VALID,94.7523,VALID,0,VALID,22.6477,VALID,135,VALID,0.3375,
2009-03-10, 01:18:04,VALID,1000.59,VALID,0,VALID,94.6531,VALID,0,VALID,22.6689,VALID,135,VALID,0.335938,
2009-03-10, 01:19:04,VALID,1000.55,VALID,0,VALID,94.7065,VALID,0,VALID,22.6689,VALID,128,VALID,0.437891,
2009-03-10, 01:20:04,VALID,1000.49,VALID,0,VALID,94.592,VALID,0,VALID,22.6494,VALID,85,VALID,0.685156,
2009-03-10, 01:21:04,VALID,1000.49,VALID,0,VALID,94.531,VALID,0,VALID,22.6299,VALID,84,VALID,0.851953,
2009-03-10, 01:22:04,VALID,1000.47,VALID,0,VALID,94.3937,VALID,0,VALID,22.6299,VALID,75,VALID,0.924609,
2009-03-10, 01:23:05,VALID,1000.45,VALID,0,VALID,94.2945,VALID,0,VALID,22.6104,VALID,64,VALID,0.9375,
2009-03-10, 01:24:05,VALID,1000.43,VALID,0,VALID,94.2029,VALID,0,VALID,22.5909,VALID,64,VALID,0.846484,
2009-03-10, 01:25:05,VALID,1000.43,VALID,0,VALID,94.1419,VALID,0,VALID,22.5519,VALID,64,VALID,0.708203,
2009-03-10, 01:26:05,VALID,1000.39,VALID,0,VALID,93.9435,VALID,0,VALID,22.4933,VALID,64,VALID,0.610547,
2009-03-10, 01:27:05,VALID,1000.35,VALID,0,VALID,93.8901,VALID,0,VALID,22.4136,VALID,64,VALID,0.408984,
2009-03-10, 01:28:05,VALID,1000.36,VALID,0,VALID,94.0045,VALID,0,VALID,22.3746,VALID,64,VALID,0.123438,
2009-03-10, 01:29:05,VALID,1000.32,VALID,0,VALID,94.0274,VALID,0,VALID,22.3373,VALID,64,VALID,0,
2009-03-10, 01:30:05,VALID,1000.3,VALID,0,VALID,94.1266,VALID,0,VALID,22.3161,VALID,64,VALID,0,
2009-03-10, 01:31:05,VALID,1000.31,VALID,0,VALID,94.2716,VALID,0,VALID,22.3373,VALID,64,VALID,0.109375,
2009-03-10, 01:32:05,VALID,1000.27,VALID,0,VALID,94.3631,VALID,0,VALID,22.3161,VALID,64,VALID,0.103906,
2009-03-10, 01:33:05,VALID,1000.22,VALID,0,VALID,94.4623,VALID,0,VALID,22.3568,VALID,64,VALID,0.206641,
2009-03-10, 01:34:05,VALID,1000.21,VALID,0,VALID,94.4928,VALID,0,VALID,22.3373,VALID,64,VALID,0.133984,
2009-03-10, 01:35:05,VALID,1000.2,VALID,0,VALID,94.5157,VALID,0,VALID,22.3161,VALID,64,VALID,0.223438,
2009-03-10, 01:36:05,VALID,1000.18,VALID,0,VALID,94.5844,VALID,0,VALID,22.3373,VALID,80,VALID,0.491016,
2009-03-10, 01:37:05,VALID,1000.16,VALID,0,VALID,94.6607,VALID,0,VALID,22.3568,VALID,87,VALID,0.292578,
2009-03-10, 01:38:05,VALID,1000.13,VALID,0,VALID,94.798,VALID,0,VALID,22.3763,VALID,122,VALID,0.959375,
2009-03-10, 01:39:05,VALID,1000.11,VALID,0,VALID,94.6912,VALID,0,VALID,22.4153,VALID,123,VALID,0.533984,
2009-03-10, 01:40:05,VALID,1000.1,VALID,0,VALID,94.7294,VALID,0,VALID,22.3958,VALID,123,VALID,0.591797,
2009-03-10, 01:41:05,VALID,1000.08,VALID,0,VALID,94.7446,VALID,0,VALID,22.4153,VALID,123,VALID,0.638281,
2009-03-10, 01:42:05,VALID,1000.08,VALID,0,VALID,94.7523,VALID,0,VALID,22.4331,VALID,123,VALID,0.5875,
2009-03-10, 01:43:05,VALID,1000.05,VALID,0,VALID,94.6302,VALID,0,VALID,22.4348,VALID,123,VALID,0.549219,
2009-03-10, 01:44:05,VALID,1000.06,VALID,0,VALID,94.5615,VALID,0,VALID,22.4153,VALID,127,VALID,0.4375,
2009-03-10, 01:45:05,VALID,1000.1,VALID,0,VALID,94.5615,VALID,0,VALID,22.4153,VALID,139,VALID,0.477734,
2009-03-10, 01:46:05,VALID,1000.09,VALID,0,VALID,94.6378,VALID,0,VALID,22.4348,VALID,139,VALID,0.648438,
2009-03-10, 01:47:05,VALID,1000.07,VALID,0,VALID,94.6836,VALID,0,VALID,22.4348,VALID,139,VALID,0.594531,
2009-03-10, 01:48:05,VALID,1000.11,VALID,0,VALID,94.6378,VALID,0,VALID,22.4543,VALID,139,VALID,0.310937,
2009-03-10, 01:49:05,VALID,1000.11,VALID,0,VALID,94.592,VALID,0,VALID,22.4526,VALID,139,VALID,0.441406,
2009-03-10, 01:50:05,VALID,1000.12,VALID,0,VALID,94.531,VALID,0,VALID,22.4738,VALID,139,VALID,0.532031,
2009-03-10, 01:51:05,VALID,1000.12,VALID,0,VALID,94.4394,VALID,0,VALID,22.4543,VALID,139,VALID,0.570313,
2009-03-10, 01:52:05,VALID,1000.14,VALID,0,VALID,94.3708,VALID,0,VALID,22.4348,VALID,139,VALID,0.335938,
2009-03-10, 01:53:05,VALID,1000.13,VALID,0,VALID,94.4623,VALID,0,VALID,22.4348,VALID,139,VALID,0.603516,
2009-03-10, 01:54:05,VALID,1000.11,VALID,0,VALID,94.4852,VALID,0,VALID,22.4543,VALID,139,VALID,0.268359,
2009-03-10, 01:55:05,VALID,1000.13,VALID,0,VALID,94.4547,VALID,0,VALID,22.4348,VALID,139,VALID,0.3125,
2009-03-10, 01:56:05,VALID,1000.13,VALID,0,VALID,94.3555,VALID,0,VALID,22.4348,VALID,139,VALID,0.178516,
2009-03-10, 01:57:05,VALID,1000.12,VALID,0,VALID,94.264,VALID,0,VALID,22.3958,VALID,139,VALID,0.0878906,
2009-03-10, 01:58:05,VALID,1000.1,VALID,0,VALID,94.1648,VALID,0,VALID,22.3568,VALID,139,VALID,0,
2009-03-10, 01:59:05,VALID,1000.1,VALID,0,VALID,94.1724,VALID,0,VALID,22.3373,VALID,139,VALID,0,
2009-03-10, 02:00:05,VALID,1000.06,VALID,0,VALID,94.2563,VALID,0,VALID,22.3178,VALID,139,VALID,0,
2009-03-10, 02:01:05,VALID,1000.02,VALID,0,VALID,94.3937,VALID,0,VALID,22.3178,VALID,139,VALID,0.0949219,
2009-03-10, 02:02:05,VALID,1000.02,VALID,0,VALID,94.4852,VALID,0,VALID,22.3178,VALID,177,VALID,0.417188,
2009-03-10, 02:03:05,VALID,999.977,VALID,0,VALID,94.5768,VALID,0,VALID,22.3568,VALID,219,VALID,0.501953,
2009-03-10, 02:04:05,VALID,999.971,VALID,0,VALID,94.5539,VALID,0,VALID,22.3763,VALID,220,VALID,0.401953,
2009-03-10, 02:05:05,VALID,999.973,VALID,0,VALID,94.592,VALID,0,VALID,22.4153,VALID,220,VALID,0.607813,
2009-03-10, 02:06:05,VALID,999.957,VALID,0,VALID,94.6073,VALID,0,VALID,22.3958,VALID,218,VALID,0.110156,
2009-03-10, 02:07:05,VALID,999.949,VALID,0,VALID,94.5157,VALID,0,VALID,22.4153,VALID,218,VALID,0,
2009-03-10, 02:08:05,VALID,999.931,VALID,0,VALID,94.4318,VALID,0.112286,VALID,22.3746,VALID,218,VALID,0.333984,
2009-03-10, 02:09:05,VALID,999.909,VALID,0,VALID,94.5234,VALID,0,VALID,22.3958,VALID,194,VALID,0.230469,
2009-03-10, 02:10:05,VALID,999.89,VALID,0,VALID,94.5234,VALID,0,VALID,22.4153,VALID,194,VALID,0.184375,
2009-03-10, 02:11:05,VALID,999.87,VALID,0,VALID,94.531,VALID,0,VALID,22.3958,VALID,149,VALID,0.290625,
2009-03-10, 02:12:05,VALID,999.856,VALID,0,VALID,94.2945,VALID,0,VALID,22.4153,VALID,149,VALID,0.0488281,
2009-03-10, 02:13:05,VALID,999.814,VALID,0,VALID,94.2334,VALID,0,VALID,22.3763,VALID,149,VALID,0,
2009-03-10, 02:14:05,VALID,999.82,VALID,0,VALID,94.18,VALID,0,VALID,22.3568,VALID,149,VALID,0,
2009-03-10, 02:15:05,VALID,999.769,VALID,0,VALID,94.1953,VALID,0,VALID,22.3178,VALID,149,VALID,0.0238281,
2009-03-10, 02:16:05,VALID,999.771,VALID,0,VALID,94.1419,VALID,0.112286,VALID,22.2771,VALID,149,VALID,0,
2009-03-10, 02:17:05,VALID,999.729,VALID,0,VALID,94.4013,VALID,0,VALID,22.3178,VALID,100,VALID,0.998438,
2009-03-10, 02:18:05,VALID,999.69,VALID,0,VALID,94.5234,VALID,0,VALID,22.3568,VALID,111,VALID,1.26289,
2009-03-10, 02:19:05,VALID,999.659,VALID,0,VALID,94.3326,VALID,0,VALID,22.3958,VALID,120,VALID,0.744922,
2009-03-10, 02:20:05,VALID,999.614,VALID,0,VALID,94.2105,VALID,0,VALID,22.3958,VALID,129,VALID,0.622266,
2009-03-10, 02:21:05,VALID,999.576,VALID,0,VALID,94.2029,VALID,0,VALID,22.4153,VALID,129,VALID,0.513672,
2009-03-10, 02:22:05,VALID,999.537,VALID,0,VALID,94.1724,VALID,0,VALID,22.3958,VALID,129,VALID,0.406641,
2009-03-10, 02:23:05,VALID,999.534,VALID,0,VALID,94.1419,VALID,0,VALID,22.3763,VALID,129,VALID,0.369531,
2009-03-10, 02:24:05,VALID,999.532,VALID,0,VALID,94.1495,VALID,0,VALID,22.3568,VALID,129,VALID,0.222656,
2009-03-10, 02:25:05,VALID,999.479,VALID,0,VALID,94.1571,VALID,0,VALID,22.3568,VALID,129,VALID,0.0015625,
2009-03-10, 02:26:05,VALID,999.458,VALID,0,VALID,94.0961,VALID,0,VALID,22.3178,VALID,129,VALID,0,
2009-03-10, 02:27:05,VALID,999.457,VALID,0,VALID,94.0656,VALID,0,VALID,22.2983,VALID,129,VALID,0,
2009-03-10, 02:28:05,VALID,999.427,VALID,0,VALID,94.0503,VALID,0,VALID,22.2788,VALID,129,VALID,0,
2009-03-10, 02:29:05,VALID,999.435,VALID,0,VALID,94.1266,VALID,0,VALID,22.2788,VALID,129,VALID,0,
2009-03-10, 02:30:05,VALID,999.433,VALID,0,VALID,94.2487,VALID,0,VALID,22.2788,VALID,129,VALID,0,
2009-03-10, 02:31:05,VALID,999.466,VALID,0,VALID,94.2945,VALID,0,VALID,22.2788,VALID,129,VALID,0,
2009-03-10, 02:32:05,VALID,999.477,VALID,0,VALID,94.3479,VALID,0,VALID,22.2788,VALID,129,VALID,0.00351562,
2009-03-10, 02:33:05,VALID,999.468,VALID,0,VALID,94.4547,VALID,0,VALID,22.2788,VALID,129,VALID,0.216016,
2009-03-10, 02:34:05,VALID,999.478,VALID,0,VALID,94.4165,VALID,0,VALID,22.2983,VALID,129,VALID,0,
2009-03-10, 02:35:05,VALID,999.48,VALID,0,VALID,94.4089,VALID,0,VALID,22.2983,VALID,129,VALID,0,
2009-03-10, 02:36:05,VALID,999.476,VALID,0,VALID,94.4013,VALID,0,VALID,22.2592,VALID,129,VALID,0.238281,
2009-03-10, 02:37:05,VALID,999.47,VALID,0,VALID,94.4013,VALID,0,VALID,22.3,VALID,129,VALID,0.288281,
2009-03-10, 02:38:05,VALID,999.463,VALID,0,VALID,94.4165,VALID,0,VALID,22.3,VALID,129,VALID,0.516016,
2009-03-10, 02:39:05,VALID,999.458,VALID,0,VALID,94.1266,VALID,0,VALID,22.2609,VALID,129,VALID,0.396094,
2009-03-10, 02:40:05,VALID,999.44,VALID,0,VALID,93.7833,VALID,0,VALID,22.1829,VALID,129,VALID,0.394922,
2009-03-10, 02:41:05,VALID,999.417,VALID,0,VALID,94.0351,VALID,0,VALID,22.1439,VALID,129,VALID,0.286719,
2009-03-10, 02:42:05,VALID,999.433,VALID,0,VALID,94.2716,VALID,0,VALID,22.1244,VALID,129,VALID,0.345703,
2009-03-10, 02:43:05,VALID,999.409,VALID,0,VALID,94.3631,VALID,0,VALID,22.1244,VALID,129,VALID,0.35,
2009-03-10, 02:44:05,VALID,999.403,VALID,0,VALID,94.4547,VALID,0,VALID,22.1032,VALID,129,VALID,0.0140625,
2009-03-10, 02:45:05,VALID,999.419,VALID,0,VALID,94.4165,VALID,0,VALID,22.1049,VALID,129,VALID,0.179297,
2009-03-10, 02:46:05,VALID,999.426,VALID,0,VALID,94.3784,VALID,0,VALID,22.1049,VALID,129,VALID,0,
2009-03-10, 02:47:05,VALID,999.42,VALID,0,VALID,94.3326,VALID,0,VALID,22.0659,VALID,129,VALID,0,
2009-03-10, 02:48:05,VALID,999.43,VALID,0,VALID,94.4623,VALID,0,VALID,22.0464,VALID,129,VALID,0.15625,
2009-03-10, 02:49:05,VALID,999.417,VALID,0,VALID,94.5691,VALID,0,VALID,22.0659,VALID,129,VALID,0.101953,
2009-03-10, 02:50:05,VALID,999.42,VALID,0,VALID,94.5157,VALID,0,VALID,22.0659,VALID,129,VALID,0,
2009-03-10, 02:51:05,VALID,999.393,VALID,0,VALID,94.5615,VALID,0,VALID,22.0235,VALID,129,VALID,0.0367187,
2009-03-10, 02:52:05,VALID,999.381,VALID,0,VALID,94.7446,VALID,0,VALID,22.0625,VALID,129,VALID,0.328906,
2009-03-10, 02:53:05,VALID,999.406,VALID,0,VALID,94.7599,VALID,0,VALID,22.082,VALID,129,VALID,0.357812,
2009-03-10, 02:54:05,VALID,999.4,VALID,0,VALID,94.8057,VALID,0,VALID,22.1422,VALID,110,VALID,0.635938,
2009-03-10, 02:55:05,VALID,999.389,VALID,0,VALID,94.7294,VALID,0,VALID,22.1422,VALID,107,VALID,0.576563,
2009-03-10, 02:56:05,VALID,999.357,VALID,0,VALID,94.6988,VALID,0,VALID,22.1617,VALID,108,VALID,0.624609,
2009-03-10, 02:57:05,VALID,999.378,VALID,0,VALID,94.676,VALID,0,VALID,22.16,VALID,108,VALID,0.554297,
2009-03-10, 02:58:05,VALID,999.355,VALID,0,VALID,94.6454,VALID,0,VALID,22.1812,VALID,108,VALID,0.595703,
2009-03-10, 02:59:05,VALID,999.335,VALID,0,VALID,94.6073,VALID,0,VALID,22.2007,VALID,108,VALID,0.421484,
2009-03-10, 03:00:05,VALID,999.341,VALID,0,VALID,94.5615,VALID,0.112286,VALID,22.2007,VALID,109,VALID,0.44375,
2009-03-10, 03:01:05,VALID,999.314,VALID,0,VALID,94.5691,VALID,0.112286,VALID,22.2007,VALID,109,VALID,0.588281,
2009-03-10, 03:02:05,VALID,999.355,VALID,0,VALID,94.4928,VALID,0,VALID,22.2007,VALID,109,VALID,0.303125,
2009-03-10, 03:03:05,VALID,999.351,VALID,0,VALID,94.4165,VALID,0,VALID,22.1795,VALID,109,VALID,0.242578,
2009-03-10, 03:04:05,VALID,999.366,VALID,0,VALID,94.3937,VALID,0,VALID,22.1812,VALID,109,VALID,0.358203,
2009-03-10, 03:05:05,VALID,999.366,VALID,0,VALID,94.4394,VALID,0,VALID,22.1405,VALID,109,VALID,0.653125,
2009-03-10, 03:06:05,VALID,999.373,VALID,0,VALID,94.4013,VALID,0,VALID,22.1405,VALID,109,VALID,0.505469,
2009-03-10, 03:07:05,VALID,999.353,VALID,0,VALID,94.4776,VALID,0,VALID,22.1405,VALID,110,VALID,0.667188,
2009-03-10, 03:08:05,VALID,999.373,VALID,0,VALID,94.4242,VALID,0,VALID,22.121,VALID,110,VALID,0.624609,
2009-03-10, 03:09:05,VALID,999.398,VALID,0,VALID,94.4471,VALID,0,VALID,22.121,VALID,110,VALID,0.639844,
2009-03-10, 03:10:05,VALID,999.391,VALID,0,VALID,94.4242,VALID,0,VALID,22.1422,VALID,110,VALID,0.591797,
2009-03-10, 03:11:05,VALID,999.413,VALID,0,VALID,94.4394,VALID,0,VALID,22.1422,VALID,108,VALID,0.498047,
2009-03-10, 03:12:05,VALID,999.421,VALID,0,VALID,94.3937,VALID,0,VALID,22.1227,VALID,104,VALID,0.5125,
2009-03-10, 03:13:05,VALID,999.438,VALID,0,VALID,94.4242,VALID,0,VALID,22.1227,VALID,104,VALID,0.278906,
2009-03-10, 03:14:05,VALID,999.426,VALID,0,VALID,94.3403,VALID,0,VALID,22.1227,VALID,104,VALID,0.303516,
2009-03-10, 03:15:05,VALID,999.433,VALID,0,VALID,94.3555,VALID,0,VALID,22.1032,VALID,104,VALID,0.251172,
2009-03-10, 03:16:05,VALID,999.425,VALID,0,VALID,94.3479,VALID,0,VALID,22.0837,VALID,104,VALID,0.376953,
2009-03-10, 03:17:05,VALID,999.419,VALID,0,VALID,94.3937,VALID,0,VALID,22.0837,VALID,104,VALID,0.449219,
2009-03-10, 03:18:05,VALID,999.426,VALID,0,VALID,94.4394,VALID,0,VALID,22.1032,VALID,104,VALID,0.536719,
2009-03-10, 03:19:05,VALID,999.439,VALID,0,VALID,94.5462,VALID,0,VALID,22.1227,VALID,104,VALID,0.685156,
2009-03-10, 03:20:05,VALID,999.427,VALID,0,VALID,94.4394,VALID,0,VALID,22.082,VALID,104,VALID,0.680469,
2009-03-10, 03:21:05,VALID,999.445,VALID,0,VALID,94.5462,VALID,0,VALID,22.1032,VALID,102,VALID,0.716406,
2009-03-10, 03:22:05,VALID,999.467,VALID,0,VALID,94.531,VALID,0,VALID,22.1227,VALID,102,VALID,0.681641,
2009-03-10, 03:23:05,VALID,999.488,VALID,0,VALID,94.5081,VALID,0,VALID,22.1422,VALID,103,VALID,0.544531,
2009-03-10, 03:24:05,VALID,999.467,VALID,0,VALID,94.4013,VALID,0,VALID,22.1015,VALID,103,VALID,0.375391,
2009-03-10, 03:25:05,VALID,999.487,VALID,0,VALID,94.4165,VALID,0,VALID,22.1227,VALID,103,VALID,0.564453,
2009-03-10, 03:26:05,VALID,999.497,VALID,0,VALID,94.4089,VALID,0,VALID,22.1032,VALID,103,VALID,0.604297,
2009-03-10, 03:27:05,VALID,999.487,VALID,0,VALID,94.3403,VALID,0,VALID,22.1032,VALID,103,VALID,0.382422,
2009-03-10, 03:28:05,VALID,999.515,VALID,0,VALID,94.4471,VALID,0,VALID,22.082,VALID,103,VALID,0.533594,
2009-03-10, 03:29:05,VALID,999.494,VALID,0,VALID,94.4623,VALID,0,VALID,22.082,VALID,103,VALID,0.291016,
2009-03-10, 03:30:05,VALID,999.518,VALID,0,VALID,94.4318,VALID,0,VALID,22.1032,VALID,103,VALID,0.504297,
2009-03-10, 03:31:05,VALID,999.55,VALID,0,VALID,94.3479,VALID,0,VALID,22.0837,VALID,103,VALID,0.330469,
2009-03-10, 03:32:05,VALID,999.529,VALID,0,VALID,94.3021,VALID,0,VALID,22.0235,VALID,103,VALID,0.337109,
2009-03-10, 03:33:05,VALID,999.551,VALID,0,VALID,94.3708,VALID,0.112286,VALID,22.0252,VALID,103,VALID,0.535156,
2009-03-10, 03:34:05,VALID,999.534,VALID,0,VALID,94.5157,VALID,0,VALID,22.0252,VALID,104,VALID,0.664453,
2009-03-10, 03:35:05,VALID,999.544,VALID,0,VALID,94.5615,VALID,0,VALID,22.0447,VALID,104,VALID,0.680078,
2009-03-10, 03:36:05,VALID,999.577,VALID,0,VALID,94.5768,VALID,0,VALID,22.043,VALID,93,VALID,0.6875,
2009-03-10, 03:37:05,VALID,999.576,VALID,0,VALID,94.4928,VALID,0,VALID,22.0447,VALID,97,VALID,0.403516,
2009-03-10, 03:38:05,VALID,999.603,VALID,0,VALID,94.5081,VALID,0,VALID,22.0447,VALID,99,VALID,0.835547,
2009-03-10, 03:39:05,VALID,999.594,VALID,0,VALID,94.4394,VALID,0,VALID,22.0447,VALID,88,VALID,0.576172,
2009-03-10, 03:40:05,VALID,999.604,VALID,0,VALID,94.4394,VALID,0,VALID,22.0447,VALID,103,VALID,0.634375,
2009-03-10, 03:41:05,VALID,999.639,VALID,0,VALID,94.5081,VALID,0,VALID,22.0447,VALID,99,VALID,1.20156,
2009-03-10, 03:42:05,VALID,999.619,VALID,0,VALID,94.3937,VALID,0,VALID,22.0642,VALID,93,VALID,0.91875,
2009-03-10, 03:43:05,VALID,999.619,VALID,0,VALID,94.4318,VALID,0,VALID,22.0625,VALID,100,VALID,0.933203,
2009-03-10, 03:44:05,VALID,999.606,VALID,0,VALID,94.2487,VALID,0,VALID,22.0837,VALID,101,VALID,0.485547,
2009-03-10, 03:45:05,VALID,999.599,VALID,0,VALID,94.1648,VALID,0,VALID,22.0642,VALID,103,VALID,0.370703,
2009-03-10, 03:46:05,VALID,999.588,VALID,0,VALID,94.1266,VALID,0,VALID,22.0447,VALID,106,VALID,0.190234,